Location: Nachod
(50.4170°N, 16.1670°E)
Time: 12:56:31
(UTC+01:00)

N. Korean satellite - Visible Passes

Search period start: 28 November 2020 00:00
Search period end: 08 December 2020 00:00
Orbit: 452 x 504 km, 97.2° (Epoch: 28 November)

Date Brightness Start Highest point End Pass type
(mag) Time Alt. Az. Time Alt. Az. Time Alt. Az.
28 Nov 8.7 04:53:07 10° NE 04:56:14 27° E 04:59:22 10° SSE visible
28 Nov 7.5 06:26:29 10° N 06:29:31 26° WNW 06:32:35 10° SW visible
28 Nov 8.6 17:05:59 10° SSW 17:09:04 31° W 17:12:11 10° NNW visible
29 Nov 9.7 04:27:37 10° NE 04:29:45 15° E 04:31:53 10° SE visible
29 Nov 6.7 05:59:52 10° N 06:03:21 50° WNW 06:06:52 10° SSW visible
29 Nov 7.0 16:39:17 10° S 16:42:40 65° WSW 16:46:08 10° NNW visible
30 Nov 6.6 05:33:28 10° NNE 05:37:05 81° ESE 05:40:44 10° S visible
30 Nov 10.0 17:48:55 10° WSW 17:50:07 11° W 17:51:19 10° WNW visible
01 Dec 8.0 05:07:18 10° NNE 05:10:44 39° E 05:14:11 10° S visible
01 Dec 7.9 06:41:11 10° NNW 06:43:50 19° WNW 06:46:30 10° WSW visible
01 Dec 9.3 17:20:49 10° SW 17:23:33 22° W 17:26:18 10° NW visible
02 Dec 9.2 04:41:27 10° NE 04:44:16 21° E 04:47:06 10° SE visible
02 Dec 7.2 06:14:23 10° N 06:17:41 35° WNW 06:21:02 10° SW visible
02 Dec 7.9 16:53:48 10° S 16:57:04 42° W 17:00:25 10° NNW visible
03 Dec 10.1 04:16:28 10° ENE 04:17:42 11° E 04:18:56 10° ESE visible
03 Dec 6.5 05:47:50 10° N 05:51:27 69° WNW 05:55:05 10° SSW visible
03 Dec 6.5 16:27:15 10° SSE 16:30:41 90° ENE 16:34:12 10° NNW visible
04 Dec 7.2 05:21:31 10° NNE 05:25:07 59° E 05:28:44 10° S visible
04 Dec 8.3 06:55:59 10° NNW 06:58:03 15° WNW 07:00:06 10° W visible
04 Dec 9.7 17:35:51 10° SW 17:37:59 15° W 17:40:09 10° NW visible
05 Dec 8.6 04:55:26 10° NNE 04:58:41 30° E 05:01:56 10° SSE visible
05 Dec 7.6 06:28:54 10° N 06:31:56 25° WNW 06:34:59 10° WSW visible
05 Dec 8.7 17:08:22 10° SSW 17:11:25 29° W 17:14:33 10° NNW visible
06 Dec 9.6 04:29:47 10° NE 04:32:08 16° E 04:34:30 10° SE visible
06 Dec 6.8 06:02:11 10° N 06:05:43 47° WNW 06:09:15 10° SW visible
06 Dec 7.1 16:41:33 10° S 16:44:58 60° W 16:48:27 10° NNW visible
07 Dec 6.5 05:35:44 10° NNE 05:39:24 87° ESE 05:43:05 10° SSW visible
07 Dec 10.1 17:51:23 10° WSW 17:52:22 11° W 17:53:22 10° WNW visible
